Main page
METAR-TAF:

METAR-TAF

Airports :

Syros Island National Airport

Syros, Greece

latitude: 37-25-16N, longitude: 024-56-54E, elevation: 73 m

Current weather observation

The report was made 16 minutes ago, at 20:20 UTC
Wind 16 kt from the Southeast
Temperature 16°C
Humidity 82%
Pressure 1013 hPa

METAR: LGSO 152020Z AUTO 13016KT //// // ////// 16/13 Q1013 RE//

Time: 22:36 (20:36 UTC)


TAF: missing

Weather observations and forecasts of more than 4000 airports (METAR and TAF reports).

The available stations are represented by yellow and red dots on the map.

Hover mouse over dot to see the name of the station.

Then click to see weather observations and forecasts.

To change the map : click on the green buttons with a black cross to zoom in, on the green button with a dash to zoom out, or on the green arrows for adjacent maps.


METAR-TAF: